FENGYUN 1C DEB, 31211

Orbit data source: Space-Track

FENGYUN 1C DEB, 31211 is space debris in SSO originally from a launch on Mon, 10 May 1999 UTC launched from the Taiyaun Space Center, China (TSC). Fengyun 1C debris stems from the Chinese weather satellite Fengyun-1C, which was intentionally destroyed by a Chinese anti-satellite missile in 2007. This event dramatically increased the amount of space debris, with thousands of trackable fragments posing hazards to satellites and human spaceflight. The Fengyun 1C debris cloud has become a focal point in discussions about space sustainability and the need for international regulations to prevent the creation of new debris.

Loading next visibility...
Identifier
31211, 1999-025BKR
Orbit
SSO
Country
Flag of CNCN / PRC
Related business
Manufacturer
Unknown
Mission
Spacecraft
Bus & Motor
Unknown
Mass
Unknown
Launch date (UTC)
1999-05-10 (27 years ago)
Launch vehicle
Unknown
Launch site
Taiyaun Space Center, China (TSC)
Object type
Payload
Rocket body
Debris
Shape & HBR
Unknown shape, 0.1 m
Radar Cross Section
Small (<0.1 m²)

Expand to show TLE details & history
Last TLE update: 2 weeks ago

TLE from 2 weeks ago
0 FENGYUN 1C DEB
1 31211U 99025BKR 26049.88369436  .00001708  00000-0  80720-3 0  9997
2 31211  98.6662  89.4439 0049746 250.3337 109.2468 14.20393222642603
Epoch: 2026-02-18T21:12Z
TLE epoch observation values (Epoch: 2026-02-18T21:12:31.192Z)
Latitude
-0.00003°
Longitude
-17.52901°
Altitude
838.911 km
Speed
7.427 km/s
True Right ascension
05h 57m 46s
True Declination
0° 00' 00"
Sunlit
Object was in daylight at epoch
Visualization orbit readout
Latitude
Unknown
Longitude
Unknown
Altitude
Unknown
Speed
Unknown
Apparent Right ascension
Unknown
Apparent Declination
Unknown
Sunlit
N/A
Visualization observer readout
Local Sidereal Time
20:12:33
Azimuth
Unknown
Elevation
Unknown
Doppler factor
Unknown
Orbital elements
Apogee altitude
856.993 km
Perigee altitude
785.365 km
Semi-major axis
7,199.316 km
Eccentricity
0.00497
Inclination
98.6662°
RAAN
89.4439°
Arg. of periapsis
250.3337°
True anomaly
109.78388°
Mean anomaly
109.2468°
Eccentric anomaly
109.51545°
Mean motion
3.55309 °/min
Orbital period
101.32 mins
BSTAR
0.0008072
Loading maneuver chart data...
Computing Atmospheric mass density...

Documentation

Showing up to 5 results
|